Location: Casper
(42.8670°N, 106.3130°W)
Time: 22:51:31
(UTC-06:00)

Daily predictions for brighter satellites

Satellite Brightness Start Highest point End
(mag) Time Altitude Azimuth Time Altitude Azimuth Time Altitude Azimuth
Cosmos 2228 Rocket 4.5 20:17:21 10° SE 20:20:29 19° E 20:23:38 10° NE
Lacrosse 5 4.3 20:19:06 10° NW 20:22:17 16° N 20:25:27 10° NE
Thor Agena Rocket 3.8 20:17:14 10° NNE 20:22:19 49° E 20:27:25 10° S
SL-24 R/B - RUBIN 2 3.6 20:18:34 10° NW 20:22:57 85° WSW 20:27:19 10° SSE
In-Cosmos 22 Rocket 4.2 20:18:21 10° N 20:23:51 88° W 20:29:12 10° S
NOSS 2-1 (C) 3.1 20:20:38 10° SSW 20:24:15 85° ESE 20:28:14 10° NE
NOSS 2-1 (D) 3.2 20:21:38 10° SW 20:25:13 88° SE 20:29:14 10° NE
Cosmos 1825 4.0 20:24:46 10° NNE 20:27:05 15° ENE 20:29:24 10° ESE
Cosmos 1805 Rocket 3.7 20:23:47 10° N 20:28:09 80° W 20:32:28 10° S
ATLAS 2AS CENTAUR R/B 3.1 20:24:11 10° NNW 20:32:07 64° NE 20:39:24 10° SE
Cosmos 1328 Rocket 4.1 20:29:52 10° SSE 20:33:58 39° E 20:38:06 10° NNE
ATLAS CENTAUR R/B 1.5 20:31:30 10° S 20:34:55 39° ESE 20:38:29 10° NE
Spot 2 Rocket 4.1 20:30:30 10° SE 20:35:15 41° ENE 20:40:00 10° N
SL-8 R/B 4.2 20:32:07 10° SSW 20:36:31 37° SE 20:40:56 10° ENE
Cosmos 2154 Rocket 4.0 20:37:01 10° S 20:43:17 84° E 20:49:32 10° N
Resurs 01 Rocket 1.7 20:41:00 10° SSE 20:45:23 62° ENE 20:49:47 10° N
SL-16 R/B 3.7 20:43:10 10° SE 20:46:08 15° E 20:49:12 10° ENE
Cosmos 1470 Rocket 4.1 20:42:04 10° N 20:46:15 41° ENE 20:50:26 10° SSE
SJ-6B 3.8 20:43:25 10° S 20:47:20 49° W 20:51:12 10° NNW
ARGOS 4.3 20:48:17 13° ESE 20:52:02 26° ENE 20:56:24 10° N
Cosmos 1939 Rocket 2.8 20:50:23 10° SSE 20:54:15 90° NE 20:58:11 10° NNW
Meteor 2-3 Rocket 3.7 20:49:42 10° N 20:55:20 77° E 21:00:58 10° SSE
NOSS 2-1 (E) 4.2 20:52:08 10° SW 20:55:42 51° NW 20:59:46 10° NNE
Cosmos 1869 4.4 20:55:17 14° SE 20:57:55 26° E 21:01:18 10° NNE
Meteor 2-10 Rocket 4.5 21:01:53 12° SSE 21:06:32 33° E 21:11:38 10° NNE
Aureole 2 3.9 21:03:32 10° SSW 21:06:34 76° ESE 21:09:31 10° NNE
Cosmos 2341 Rocket 4.0 21:00:22 10° S 21:06:44 86° E 21:13:06 10° N
NOSS 0 Rocket 3.9 21:01:16 10° SSW 21:07:23 71° ESE 21:13:35 10° NNE
BREEZE-M DEB (TANK) 3.9 21:05:48 10° W 21:08:16 26° NNW 21:10:13 10° NE
Cosmos 962 Rocket 4.5 21:02:12 10° S 21:08:19 88° WNW 21:14:32 10° N
NOSS 3-3 (A) 4.2 21:03:49 10° SW 21:09:52 77° NW 21:16:33 10° NE
NOSS 3-3 (C) 4.2 21:03:56 10° SW 21:09:58 78° NW 21:16:39 10° NE
Cosmos 1408 2.7 21:06:44 10° N 21:10:20 54° E 21:12:36 21° SSE
Cosmos 2218 Rocket 4.2 21:05:20 10° SSE 21:11:27 52° E 21:17:38 10° NNE
Cosmos 1980 3.6 21:06:17 10° SSW 21:11:54 68° ESE 21:17:33 10° NNE
Cosmos 407 Rocket 4.4 21:07:23 10° N 21:11:57 31° ENE 21:14:31 20° ESE
ERS-1 Rocket 4.1 21:10:08 18° ESE 21:12:31 26° ENE 21:16:39 10° N
Cosmos 220 Rocket 4.2 21:09:20 10° NNW 21:13:39 69° WSW 21:17:27 13° S
USA 186 3.4 21:12:51 10° SSW 21:14:41 22° W 21:16:33 10° NW
Cosmos 1933 Rocket 3.5 21:10:31 10° N 21:14:54 69° E 21:18:15 17° SSE
ERS-2 4.0 21:12:02 10° SSW 21:15:16 29° W 21:18:32 10° NW
USA 267 4.2 21:11:41 10° ENE 21:16:31 22° ESE 21:21:18 10° S
Cosmos 1455 2.9 21:13:41 10° SSW 21:17:26 55° W 21:21:16 10° N
Resurs 1-3 4.2 21:14:19 10° S 21:18:37 56° W 21:22:57 10° NNW
Cosmos 1151 Rocket 2.9 21:14:39 10° S 21:18:53 80° E 21:23:11 10° N
H-2A R/B 2.8 21:17:10 22° ESE 21:19:33 33° ENE 21:23:57 10° N
Cosmos 1371 Rocket 4.2 21:17:20 10° S 21:22:28 52° ESE 21:27:39 10° NNE
Cosmos 2366 rocket 4.1 21:16:47 10° S 21:22:49 57° E 21:28:58 10° NNE
Cosmos 2333 Rocket 2.7 21:17:20 10° SW 21:22:56 64° WNW 21:28:35 10° NNE
Cosmos 1844 Rocket 4.4 21:20:10 10° NW 21:25:03 30° WSW 21:29:54 10° SSW
YAOGAN 6 4.5 21:24:35 10° SSW 21:27:46 29° W 21:31:00 10° NNW
COSMOS 2428 4.4 21:23:04 10° WSW 21:28:20 37° WNW 21:33:37 10° N
SL-8 Rocket 4.0 21:25:33 10° S 21:31:52 88° E 21:38:11 10° N
MetOp-A 4.2 21:32:42 26° SE 21:35:38 61° ENE 21:40:55 10° N
Cosmos 1869 Rocket 4.2 21:33:12 10° N 21:37:16 37° ENE 21:38:04 34° E
Cosmos 2219 Rocket 3.5 21:31:55 10° SW 21:37:17 43° WNW 21:42:40 10° NNE
Genesis I 4.3 21:34:01 10° NW 21:37:52 40° WSW 21:40:01 22° S
Cosmos 1339 Rocket 4.4 21:32:32 10° N 21:38:38 68° E 21:42:24 24° SSE
Cosmos 2237 Rocket 2.3 21:33:38 10° SSW 21:39:15 80° WNW 21:44:55 10° NNE
Cosmos 2056 Rocket 3.5 21:38:34 10° S 21:43:55 64° ESE 21:49:16 10° NNE
Cosmos 1862 3.8 21:41:18 10° N 21:45:09 41° ENE 21:45:27 40° E
Helios 1A 3.8 21:45:20 33° E 21:45:49 34° ENE 21:49:36 10° N
Cosmos 2278 Rocket 2.6 21:42:33 10° NNW 21:48:08 59° WSW 21:51:43 22° S
Terra 3.5 21:48:17 17° ENE 21:48:44 18° ENE 21:51:51 10° NNE
Cosmos 405 Rocket 3.4 21:50:13 37° ENE 21:50:13 37° ENE 21:53:20 10° NNE
ATLAS 5 CENTAUR R/B 4.3 21:46:33 10° N 21:50:20 18° NNE 21:54:08 11° ENE
Cosmos 2098 Rocket 2.9 21:47:46 17° S 21:51:19 86° W 21:55:07 10° N
Cosmos 405 2.8 21:47:49 10° N 21:51:20 69° E 21:51:27 68° E
Cosmos 1624 Rocket 3.9 21:55:42 10° SSW 22:00:54 86° WNW 22:06:07 10° NNE
Cosmos 1825 3.6 21:59:19 10° NNW 22:02:47 35° W 22:04:39 22° SW
Cosmos 1190 Rocket 3.9 21:58:14 10° NNW 22:03:34 89° ENE 22:05:13 45° SSE
Cosmos 1140 Rocket 3.8 22:01:19 10° N 22:06:19 48° ENE 22:07:09 44° E
Lacrosse 5 3.8 22:02:58 10° NNW 22:06:55 22° NNE 22:09:44 15° ENE
SPOT 5 3.0 22:07:48 48° E 22:08:06 49° ENE 22:12:24 10° N
ATLAS CENTAUR R/B 3.9 22:11:15 10° W 22:14:03 20° NW 22:16:59 10° N
Cosmos 1954 Rocket 4.0 22:11:14 10° NNW 22:16:24 60° ENE 22:17:03 55° E
Cosmos 1934 Rocket 4.5 22:17:32 37° E 22:17:36 37° E 22:23:05 10° NNE
SL-8 R/B 4.0 22:14:09 10° WSW 22:18:55 66° NNW 22:21:33 26° NE
BREEZE-M DEB (TANK) 4.3 22:16:36 10° WNW 22:17:44 21° WNW 22:17:44 21° WNW
GEOS 3 Rocket 3.5 22:16:46 10° NE 22:22:08 73° SE 22:24:42 31° SSW
Resurs 01 Rocket 4.4 22:20:16 10° WSW 22:22:16 13° W 22:24:17 10° WNW
ATLAS 2AS CENTAUR R/B 4.2 22:15:59 10° NW 22:22:36 31° WSW 22:27:11 17° SSW
Cosmos 1933 4.0 22:30:16 49° NNE 22:30:16 49° NNE 22:33:20 10° N
SL-16 R/B 2.2 22:24:48 15° SSW 22:29:30 77° WNW 22:35:12 10° NNE
CZ-2C R/B 4.3 22:30:14 25° NE 22:30:14 25° NE 22:33:41 10° N
ARGOS 4.0 22:29:47 29° SSW 22:32:01 44° W 22:37:09 10° NNW
SL-08 RB Rocket 4.5 22:34:41 40° SW 22:35:26 44° W 22:39:44 10° NNW
Cosmos 1943 Rocket 3.7 22:31:10 10° N 22:35:28 22° NE 22:36:08 22° ENE
Cosmos 1000 Rocket 4.4 22:31:25 10° N 22:37:38 85° E 22:38:53 60° SSE
SL-19 R/B 4.1 22:39:18 70° SE 22:39:57 83° ENE 22:45:34 10° NNW
Cosmos 1821 Rocket 3.9 22:42:14 58° S 22:43:35 84° E 22:49:55 10° N
DMSP B5D2-2 4.0 22:39:21 10° NNE 22:44:37 81° WNW 22:45:19 67° SW
ATLAS 2A CENTAUR R/B 4.5 22:33:35 10° SW 22:44:53 27° S 22:44:53 27° S
Cosmos 1420 Rocket 4.1 22:48:12 68° NE 22:48:12 68° NE 22:52:58 10° NNE
SPOT 1/Viking Rocket 3.6 22:50:17 68° SW 22:50:34 70° WSW 22:55:49 10° NNW
ERS-1 Rocket 3.9 22:50:07 35° SW 22:51:06 39° W 22:55:49 10° NNW
Cosmos 614 Rocket 4.1 22:47:37 10° NNW 22:52:49 66° WSW 22:52:50 66° WSW
NOSS 3-4 (A) 4.2 22:46:40 10° NW 22:53:35 57° WSW 22:55:20 46° SSW
NOSS 3-4 (C) 4.1 22:46:46 10° NW 22:53:41 57° WSW 22:55:26 47° SSW
Cosmos 1603 4.3 22:58:05 43° NE 22:58:05 43° NE 23:02:01 10° NNE
Meteor 1-14 Rocket 4.3 22:51:27 10° N 22:56:35 63° NE 22:56:35 63° NE
H-2A R/B 3.4 22:57:48 27° WSW 22:58:56 30° W 23:03:19 10° NW
USA 267 3.1 22:53:33 10° NE 23:00:07 82° SE 23:06:40 10° SW
Cosmos 2123 Rocket 3.9 22:53:59 10° N 23:00:19 75° E 23:00:33 74° ESE
Helios 1B rocket 3.5 22:58:22 10° N 23:01:31 44° NNW 23:01:31 44° NNW
Cosmos 2344 3.5 22:54:51 10° SW 23:02:28 88° NW 23:10:56 10° NE
Cosmos 2369 Rocket 2.7 23:01:52 10° NNW 23:07:06 50° NE 23:07:06 50° NE
Landsat 7 4.4 23:08:51 52° WNW 23:08:51 52° WNW 23:12:58 10° NNW
Meteor 1-25 Rocket 4.3 23:16:02 10° NNW 23:21:15 73° NNW 23:21:15 73° NNW
Cosmos 1241 Rocket 4.5 23:15:57 10° NW 23:22:05 74° WSW 23:22:05 74° WSW
CZ-2C R/B 3.7 23:17:40 10° NNE 23:21:05 37° NE 23:21:05 37° NE
RESURS DK-1 4.3 23:20:03 10° NNW 23:22:09 26° N 23:22:09 26° N
Terra 2.8 23:27:10 44° NW 23:27:10 44° NW 23:30:44 10° NNW
CZ-4C R/B 2.6 23:29:46 58° N 23:29:46 58° N 23:34:46 10° NNE
USA 234 3.5 23:32:57 56° ENE 23:33:51 61° NNE 23:40:17 10° NW
Cosmos 1605 Rocket 4.0 23:34:09 80° NW 23:34:09 80° NW 23:40:20 10° N
ATLAS 5 CENTAUR R/B 2.7 23:30:13 10° NNW 23:35:41 62° NNE 23:35:41 62° NNE
SeaSat 1 4.2 23:48:48 25° NE 23:48:48 25° NE 23:52:09 10° N
Lacrosse 5 3.1 23:45:38 10° NW 23:48:55 39° NNW 23:48:55 39° NNW
